,,PA_Meas_PMT16A,,PR_Meas_QMR101_102,,RH_Meas_QMH101,,SR_Meas_QMS101,,TA_Meas_QMH101,,GenWind,,GenWind,
time,status,PA,status,PR,status,RH,status,SR,status,TA,status,DirAvg,status,SpdAvg,
2013-06-25, 00:00:04,VALID,919.421,VALID,0,VALID,94.7972,VALID,0,VALID,20.0328,VALID,135,VALID,0,
2013-06-25, 00:01:04,VALID,919.42,VALID,0,VALID,94.7286,VALID,0.107441,VALID,20.0328,VALID,135,VALID,0,
2013-06-25, 00:02:04,VALID,919.421,VALID,0,VALID,94.7514,VALID,0,VALID,20.0928,VALID,135,VALID,0,
2013-06-25, 00:03:04,VALID,919.437,VALID,0,VALID,94.4846,VALID,0,VALID,20.1318,VALID,141,VALID,0,
2013-06-25, 00:04:04,VALID,919.444,VALID,0,VALID,94.3169,VALID,0,VALID,20.1108,VALID,141,VALID,0,
2013-06-25, 00:05:04,VALID,919.438,VALID,0,VALID,94.2026,VALID,0.107441,VALID,20.1708,VALID,141,VALID,0,
2013-06-25, 00:06:04,VALID,919.41,VALID,0,VALID,94.1187,VALID,0,VALID,20.1903,VALID,140,VALID,0,
2013-06-25, 00:07:04,VALID,919.412,VALID,0,VALID,94.073,VALID,0,VALID,20.2278,VALID,136,VALID,0,
2013-06-25, 00:08:04,VALID,919.391,VALID,0,VALID,93.8595,VALID,0,VALID,20.2489,VALID,139,VALID,0,
2013-06-25, 00:09:04,VALID,919.396,VALID,0,VALID,93.6842,VALID,0,VALID,20.2684,VALID,134,VALID,0,
2013-06-25, 00:10:04,VALID,919.379,VALID,0,VALID,93.4631,VALID,0,VALID,20.2684,VALID,124,VALID,0,
2013-06-25, 00:11:04,VALID,919.368,VALID,0,VALID,93.1429,VALID,0,VALID,20.2489,VALID,124,VALID,0,
2013-06-25, 00:12:04,VALID,919.374,VALID,0,VALID,93.0667,VALID,0,VALID,20.1888,VALID,124,VALID,0,
2013-06-25, 00:13:04,VALID,919.363,VALID,0,VALID,93.0362,VALID,0,VALID,20.1888,VALID,129,VALID,0,
2013-06-25, 00:14:04,VALID,919.369,VALID,0,VALID,93.0285,VALID,0,VALID,20.1903,VALID,129,VALID,0,
2013-06-25, 00:15:04,VALID,919.388,VALID,0,VALID,93.0209,VALID,0,VALID,20.1693,VALID,131,VALID,0,
2013-06-25, 00:16:04,VALID,919.409,VALID,0,VALID,93.059,VALID,0,VALID,20.1708,VALID,131,VALID,0,
2013-06-25, 00:17:04,VALID,919.402,VALID,0,VALID,93.1963,VALID,0,VALID,20.2114,VALID,125,VALID,0,
2013-06-25, 00:18:04,VALID,919.394,VALID,0,VALID,93.1658,VALID,0,VALID,20.1708,VALID,125,VALID,0,
2013-06-25, 00:19:04,VALID,919.411,VALID,0,VALID,93.0667,VALID,0,VALID,20.1108,VALID,131,VALID,0,
2013-06-25, 00:20:04,VALID,919.456,VALID,0,VALID,93.0972,VALID,0,VALID,20.1123,VALID,129,VALID,0,
2013-06-25, 00:21:04,VALID,919.459,VALID,0,VALID,93.2954,VALID,0,VALID,20.1123,VALID,131,VALID,0,
2013-06-25, 00:22:04,VALID,919.456,VALID,0,VALID,93.4631,VALID,0,VALID,20.0913,VALID,131,VALID,0,
2013-06-25, 00:23:04,VALID,919.455,VALID,0,VALID,93.5088,VALID,0,VALID,20.0733,VALID,131,VALID,0,
2013-06-25, 00:24:04,VALID,919.486,VALID,0,VALID,93.425,VALID,0,VALID,20.0148,VALID,131,VALID,0,
2013-06-25, 00:25:04,VALID,919.485,VALID,0,VALID,93.5851,VALID,0,VALID,19.9758,VALID,131,VALID,0,
2013-06-25, 00:26:04,VALID,919.461,VALID,0,VALID,93.6537,VALID,0,VALID,19.9368,VALID,131,VALID,0,
2013-06-25, 00:27:04,VALID,919.456,VALID,0,VALID,93.7223,VALID,0,VALID,19.8573,VALID,131,VALID,0,
2013-06-25, 00:28:04,VALID,919.446,VALID,0,VALID,93.8214,VALID,0,VALID,19.8588,VALID,131,VALID,0,
2013-06-25, 00:29:04,VALID,919.441,VALID,0,VALID,93.9129,VALID,0,VALID,19.8198,VALID,131,VALID,0,
2013-06-25, 00:30:04,VALID,919.401,VALID,0,VALID,94.073,VALID,0,VALID,19.8003,VALID,140,VALID,0,
2013-06-25, 00:31:04,VALID,919.406,VALID,0,VALID,94.233,VALID,0,VALID,19.8003,VALID,159,VALID,0,
2013-06-25, 00:32:04,VALID,919.4,VALID,0,VALID,94.3626,VALID,0,VALID,19.7808,VALID,159,VALID,0,
2013-06-25, 00:33:04,VALID,919.407,VALID,0,VALID,94.3703,VALID,0,VALID,19.7613,VALID,159,VALID,0,
2013-06-25, 00:34:04,VALID,919.345,VALID,0,VALID,94.4008,VALID,0,VALID,19.7223,VALID,157,VALID,0,
2013-06-25, 00:35:04,VALID,919.344,VALID,0,VALID,94.5304,VALID,0,VALID,19.7028,VALID,152,VALID,0,
2013-06-25, 00:36:04,VALID,919.348,VALID,0,VALID,94.7362,VALID,0,VALID,19.7028,VALID,152,VALID,0,
2013-06-25, 00:37:04,VALID,919.356,VALID,0,VALID,94.8048,VALID,0,VALID,19.6833,VALID,152,VALID,0,
2013-06-25, 00:38:04,VALID,919.35,VALID,0,VALID,94.9496,VALID,0,VALID,19.6833,VALID,152,VALID,0,
2013-06-25, 00:39:04,VALID,919.356,VALID,0,VALID,95.125,VALID,0,VALID,19.7028,VALID,132,VALID,0,
2013-06-25, 00:40:04,VALID,919.365,VALID,0,VALID,95.0106,VALID,0,VALID,19.6638,VALID,132,VALID,0,
2013-06-25, 00:41:04,VALID,919.343,VALID,0,VALID,94.9192,VALID,0,VALID,19.6638,VALID,132,VALID,0,
2013-06-25, 00:42:04,VALID,919.36,VALID,0,VALID,94.881,VALID,0.107441,VALID,19.6428,VALID,134,VALID,0,
2013-06-25, 00:43:04,VALID,919.376,VALID,0,VALID,94.9115,VALID,0,VALID,19.6428,VALID,158,VALID,0,
2013-06-25, 00:44:04,VALID,919.338,VALID,0,VALID,94.8429,VALID,0,VALID,19.6833,VALID,177,VALID,0,
2013-06-25, 00:45:04,VALID,919.335,VALID,0,VALID,94.8505,VALID,0,VALID,19.7223,VALID,151,VALID,0,
2013-06-25, 00:46:04,VALID,919.328,VALID,0,VALID,94.8124,VALID,0.107441,VALID,19.7418,VALID,152,VALID,0,
2013-06-25, 00:47:04,VALID,919.289,VALID,0,VALID,94.7819,VALID,0,VALID,19.7418,VALID,156,VALID,0,
2013-06-25, 00:48:04,VALID,919.279,VALID,0,VALID,94.7133,VALID,0,VALID,19.7613,VALID,149,VALID,0,
2013-06-25, 00:49:04,VALID,919.271,VALID,0,VALID,94.66,VALID,0,VALID,19.7808,VALID,130,VALID,0,
2013-06-25, 00:50:04,VALID,919.247,VALID,0,VALID,94.5609,VALID,0,VALID,19.7418,VALID,131,VALID,0,
2013-06-25, 00:51:04,VALID,919.212,VALID,0,VALID,94.599,VALID,0,VALID,19.7418,VALID,131,VALID,0,
2013-06-25, 00:52:04,VALID,919.226,VALID,0,VALID,94.4846,VALID,0,VALID,19.7028,VALID,132,VALID,0,
2013-06-25, 00:53:04,VALID,919.19,VALID,0,VALID,94.538,VALID,0,VALID,19.7028,VALID,138,VALID,0,
2013-06-25, 00:54:04,VALID,919.189,VALID,0,VALID,94.5609,VALID,0.107441,VALID,19.6818,VALID,131,VALID,0,
2013-06-25, 00:55:04,VALID,919.203,VALID,0,VALID,94.5609,VALID,0.107441,VALID,19.6623,VALID,131,VALID,0,
2013-06-25, 00:56:04,VALID,919.161,VALID,0,VALID,94.6218,VALID,0.107441,VALID,19.6428,VALID,131,VALID,0,
2013-06-25, 00:57:04,VALID,919.179,VALID,0,VALID,94.5837,VALID,0.107441,VALID,19.6023,VALID,131,VALID,0,
2013-06-25, 00:58:04,VALID,919.206,VALID,0,VALID,94.6066,VALID,0.107441,VALID,19.6038,VALID,127,VALID,0,
2013-06-25, 00:59:04,VALID,919.169,VALID,0,VALID,94.7057,VALID,0.107441,VALID,19.5843,VALID,128,VALID,0,
2013-06-25, 01:00:04,VALID,919.151,VALID,0,VALID,94.7819,VALID,0.107441,VALID,19.5843,VALID,123,VALID,0,
2013-06-25, 01:01:04,VALID,919.157,VALID,0,VALID,94.6752,VALID,0.107441,VALID,19.5648,VALID,125,VALID,0,
2013-06-25, 01:02:04,VALID,919.129,VALID,0,VALID,94.6676,VALID,0.107441,VALID,19.5453,VALID,119,VALID,0,
2013-06-25, 01:03:04,VALID,919.15,VALID,0,VALID,94.9496,VALID,0.107441,VALID,19.6038,VALID,134,VALID,0,
2013-06-25, 01:04:04,VALID,919.135,VALID,0,VALID,94.9192,VALID,0.107441,VALID,19.6038,VALID,133,VALID,0,
2013-06-25, 01:05:04,VALID,919.158,VALID,0,VALID,94.8887,VALID,0.107441,VALID,19.6038,VALID,148,VALID,0,
2013-06-25, 01:06:04,VALID,919.145,VALID,0,VALID,94.8658,VALID,0.107441,VALID,19.5648,VALID,124,VALID,0,
2013-06-25, 01:07:04,VALID,919.144,VALID,0,VALID,94.942,VALID,0.107441,VALID,19.5063,VALID,115,VALID,0,
2013-06-25, 01:08:04,VALID,919.134,VALID,0,VALID,94.9573,VALID,0.107441,VALID,19.5078,VALID,119,VALID,0,
2013-06-25, 01:09:04,VALID,919.086,VALID,0,VALID,95.0869,VALID,0,VALID,19.4493,VALID,127,VALID,0,
2013-06-25, 01:10:04,VALID,919.052,VALID,0,VALID,95.2546,VALID,0,VALID,19.4508,VALID,113,VALID,0,
2013-06-25, 01:11:04,VALID,919.023,VALID,0,VALID,95.2698,VALID,0,VALID,19.4103,VALID,124,VALID,0,
2013-06-25, 01:12:04,VALID,919.027,VALID,0,VALID,95.4147,VALID,0,VALID,19.4298,VALID,118,VALID,0,
2013-06-25, 01:13:04,VALID,919.013,VALID,0,VALID,95.3842,VALID,0,VALID,19.3908,VALID,118,VALID,0,
2013-06-25, 01:14:04,VALID,918.977,VALID,0,VALID,95.4452,VALID,0,VALID,19.4118,VALID,115,VALID,0,
2013-06-25, 01:15:04,VALID,918.936,VALID,0,VALID,95.5138,VALID,0,VALID,19.4103,VALID,104,VALID,0,
2013-06-25, 01:16:04,VALID,918.898,VALID,0,VALID,95.5519,VALID,0,VALID,19.4103,VALID,124,VALID,0,
2013-06-25, 01:17:04,VALID,918.882,VALID,0,VALID,95.5671,VALID,0,VALID,19.4118,VALID,104,VALID,0,
2013-06-25, 01:18:04,VALID,918.888,VALID,0,VALID,95.5595,VALID,0,VALID,19.4103,VALID,104,VALID,0,
2013-06-25, 01:19:04,VALID,918.852,VALID,0,VALID,95.5976,VALID,0,VALID,19.4103,VALID,104,VALID,0,
2013-06-25, 01:20:04,VALID,918.805,VALID,0,VALID,95.6815,VALID,0,VALID,19.4898,VALID,119,VALID,0,
2013-06-25, 01:21:04,VALID,918.816,VALID,0,VALID,95.7272,VALID,0,VALID,19.5273,VALID,127,VALID,0,
2013-06-25, 01:22:04,VALID,918.779,VALID,0,VALID,95.7501,VALID,0,VALID,19.5663,VALID,127,VALID,0,
2013-06-25, 01:23:04,VALID,918.758,VALID,0,VALID,95.7196,VALID,0,VALID,19.6068,VALID,127,VALID,0,
2013-06-25, 01:24:04,VALID,918.75,VALID,0,VALID,95.6891,VALID,0,VALID,19.6248,VALID,131,VALID,0,
2013-06-25, 01:25:04,VALID,918.744,VALID,0,VALID,95.6586,VALID,0,VALID,19.6443,VALID,132,VALID,0,
2013-06-25, 01:26:04,VALID,918.698,VALID,0,VALID,95.6129,VALID,0,VALID,19.6653,VALID,143,VALID,0,
2013-06-25, 01:27:04,VALID,918.704,VALID,0,VALID,95.5595,VALID,0,VALID,19.6638,VALID,125,VALID,0,
2013-06-25, 01:28:04,VALID,918.689,VALID,0,VALID,95.4833,VALID,0,VALID,19.7043,VALID,125,VALID,0,
2013-06-25, 01:29:04,VALID,918.718,VALID,0,VALID,95.3994,VALID,0,VALID,19.7028,VALID,134,VALID,0,
2013-06-25, 01:30:04,VALID,918.739,VALID,0,VALID,95.2622,VALID,0,VALID,19.7028,VALID,134,VALID,0,
2013-06-25, 01:31:04,VALID,918.706,VALID,0,VALID,95.1174,VALID,0,VALID,19.7433,VALID,134,VALID,0,
2013-06-25, 01:32:04,VALID,918.738,VALID,0,VALID,94.9725,VALID,0,VALID,19.7028,VALID,134,VALID,0,
2013-06-25, 01:33:04,VALID,918.716,VALID,0,VALID,94.7972,VALID,0,VALID,19.7028,VALID,134,VALID,0,
2013-06-25, 01:34:04,VALID,918.702,VALID,0,VALID,94.6295,VALID,0,VALID,19.6833,VALID,134,VALID,0,
2013-06-25, 01:35:04,VALID,918.728,VALID,0,VALID,94.4922,VALID,0,VALID,19.6638,VALID,134,VALID,0,
2013-06-25, 01:36:04,VALID,918.703,VALID,0,VALID,94.4617,VALID,0,VALID,19.6848,VALID,134,VALID,0,
2013-06-25, 01:37:04,VALID,918.675,VALID,0,VALID,94.3931,VALID,0,VALID,19.6848,VALID,134,VALID,0,
2013-06-25, 01:38:04,VALID,918.646,VALID,0,VALID,94.3398,VALID,0,VALID,19.6833,VALID,134,VALID,0,
2013-06-25, 01:39:04,VALID,918.648,VALID,0,VALID,94.2407,VALID,0,VALID,19.6623,VALID,134,VALID,0,
2013-06-25, 01:40:04,VALID,918.628,VALID,0,VALID,94.1797,VALID,0.107441,VALID,19.6833,VALID,134,VALID,0,
2013-06-25, 01:41:04,VALID,918.633,VALID,0,VALID,94.0882,VALID,0,VALID,19.6638,VALID,134,VALID,0,
2013-06-25, 01:42:04,VALID,918.651,VALID,0,VALID,94.0501,VALID,0.107441,VALID,19.6428,VALID,134,VALID,0,
2013-06-25, 01:43:04,VALID,918.66,VALID,0,VALID,94.0653,VALID,0,VALID,19.6233,VALID,134,VALID,0,
2013-06-25, 01:44:05,VALID,918.681,VALID,0,VALID,93.8214,VALID,0,VALID,19.6053,VALID,132,VALID,0,
2013-06-25, 01:45:05,VALID,918.713,VALID,0,VALID,93.7147,VALID,0,VALID,19.5063,VALID,132,VALID,0,
2013-06-25, 01:46:05,VALID,918.7,VALID,0,VALID,93.6689,VALID,0,VALID,19.4478,VALID,123,VALID,0,
2013-06-25, 01:47:05,VALID,918.717,VALID,0,VALID,93.6308,VALID,0,VALID,19.3503,VALID,123,VALID,0,
2013-06-25, 01:48:05,VALID,918.727,VALID,0,VALID,93.9129,VALID,0.107441,VALID,19.3113,VALID,123,VALID,0,
2013-06-25, 01:49:05,VALID,918.717,VALID,0,VALID,94.1644,VALID,0,VALID,19.2918,VALID,123,VALID,0,
2013-06-25, 01:50:05,VALID,918.701,VALID,0,VALID,94.477,VALID,0.107441,VALID,19.2918,VALID,123,VALID,0,
2013-06-25, 01:51:05,VALID,918.691,VALID,0,VALID,94.7057,VALID,0,VALID,19.2918,VALID,123,VALID,0,
2013-06-25, 01:52:05,VALID,918.687,VALID,0,VALID,94.8429,VALID,0,VALID,19.2918,VALID,123,VALID,0,
2013-06-25, 01:53:05,VALID,918.64,VALID,0,VALID,94.9496,VALID,0.107441,VALID,19.2918,VALID,123,VALID,0,
2013-06-25, 01:54:05,VALID,918.654,VALID,0,VALID,94.9115,VALID,0,VALID,19.2543,VALID,123,VALID,0,
2013-06-25, 01:55:05,VALID,918.656,VALID,0,VALID,94.9268,VALID,0,VALID,19.2348,VALID,123,VALID,0,
2013-06-25, 01:56:05,VALID,918.632,VALID,0,VALID,95.064,VALID,0,VALID,19.2153,VALID,123,VALID,0,
2013-06-25, 01:57:05,VALID,918.648,VALID,0,VALID,95.1479,VALID,0,VALID,19.2153,VALID,123,VALID,0,
2013-06-25, 01:58:05,VALID,918.593,VALID,0,VALID,95.2775,VALID,0,VALID,19.2348,VALID,123,VALID,0,
2013-06-25, 01:59:05,VALID,918.613,VALID,0,VALID,95.3003,VALID,0,VALID,19.2153,VALID,123,VALID,0,
2013-06-25, 02:00:05,VALID,918.578,VALID,0,VALID,95.4299,VALID,0,VALID,19.2348,VALID,123,VALID,0,
2013-06-25, 02:01:05,VALID,918.586,VALID,0,VALID,95.4604,VALID,0,VALID,19.2558,VALID,123,VALID,0,
2013-06-25, 02:02:05,VALID,918.59,VALID,0,VALID,95.4833,VALID,0,VALID,19.2543,VALID,123,VALID,0,
2013-06-25, 02:03:05,VALID,918.579,VALID,0,VALID,95.5062,VALID,0,VALID,19.2558,VALID,123,VALID,0,
2013-06-25, 02:04:05,VALID,918.533,VALID,0,VALID,95.5214,VALID,0,VALID,19.2348,VALID,123,VALID,0,
2013-06-25, 02:05:05,VALID,918.564,VALID,0,VALID,95.5671,VALID,0,VALID,19.2543,VALID,123,VALID,0,
2013-06-25, 02:06:05,VALID,918.535,VALID,0,VALID,95.6053,VALID,0,VALID,19.2948,VALID,123,VALID,0,
2013-06-25, 02:07:05,VALID,918.5,VALID,0,VALID,95.6739,VALID,0,VALID,19.3128,VALID,123,VALID,0,
2013-06-25, 02:08:05,VALID,918.484,VALID,0,VALID,95.6662,VALID,0,VALID,19.3533,VALID,124,VALID,0,
2013-06-25, 02:09:05,VALID,918.472,VALID,0,VALID,95.6739,VALID,0,VALID,19.3518,VALID,124,VALID,0,
2013-06-25, 02:10:05,VALID,918.43,VALID,0,VALID,95.6281,VALID,0,VALID,19.3518,VALID,124,VALID,0,
2013-06-25, 02:11:05,VALID,918.39,VALID,0,VALID,95.5595,VALID,0,VALID,19.3518,VALID,124,VALID,0,
2013-06-25, 02:12:05,VALID,918.389,VALID,0,VALID,95.5671,VALID,0,VALID,19.3728,VALID,124,VALID,0,
2013-06-25, 02:13:05,VALID,918.375,VALID,0,VALID,95.5138,VALID,0,VALID,19.3713,VALID,124,VALID,0,
2013-06-25, 02:14:05,VALID,918.348,VALID,0,VALID,95.4375,VALID,0,VALID,19.3923,VALID,124,VALID,0,
2013-06-25, 02:15:05,VALID,918.363,VALID,0,VALID,95.5138,VALID,0,VALID,19.4508,VALID,124,VALID,0,
2013-06-25, 02:16:05,VALID,918.355,VALID,0,VALID,95.4985,VALID,0,VALID,19.4898,VALID,124,VALID,0,
2013-06-25, 02:17:05,VALID,918.357,VALID,0,VALID,95.3613,VALID,0,VALID,19.4703,VALID,124,VALID,0,
2013-06-25, 02:18:05,VALID,918.36,VALID,0,VALID,95.1936,VALID,0,VALID,19.4298,VALID,124,VALID,0,
2013-06-25, 02:19:05,VALID,918.34,VALID,0,VALID,95.2012,VALID,0,VALID,19.4298,VALID,124,VALID,0,
2013-06-25, 02:20:05,VALID,918.357,VALID,0,VALID,95.0716,VALID,0,VALID,19.4103,VALID,103,VALID,0,
2013-06-25, 02:21:05,VALID,918.345,VALID,0,VALID,94.9725,VALID,0,VALID,19.4103,VALID,100,VALID,0,
2013-06-25, 02:22:05,VALID,918.36,VALID,0,VALID,94.8734,VALID,0,VALID,19.3923,VALID,100,VALID,0,
2013-06-25, 02:23:05,VALID,918.317,VALID,0,VALID,94.8887,VALID,0,VALID,19.3728,VALID,94,VALID,0,
2013-06-25, 02:24:05,VALID,918.304,VALID,0,VALID,94.8124,VALID,0,VALID,19.3518,VALID,93,VALID,0,
2013-06-25, 02:25:05,VALID,918.288,VALID,0,VALID,94.8124,VALID,0,VALID,19.2933,VALID,93,VALID,0,
2013-06-25, 02:26:05,VALID,918.321,VALID,0,VALID,94.7438,VALID,0,VALID,19.2948,VALID,93,VALID,0,
2013-06-25, 02:27:05,VALID,918.325,VALID,0,VALID,94.8277,VALID,0,VALID,19.2558,VALID,93,VALID,0,
2013-06-25, 02:28:05,VALID,918.313,VALID,0,VALID,94.8582,VALID,0,VALID,19.2348,VALID,93,VALID,0,
2013-06-25, 02:29:05,VALID,918.315,VALID,0,VALID,94.9039,VALID,0,VALID,19.2168,VALID,96,VALID,0,
2013-06-25, 02:30:05,VALID,918.35,VALID,0,VALID,94.9115,VALID,0,VALID,19.1778,VALID,101,VALID,0,
2013-06-25, 02:31:05,VALID,918.332,VALID,0,VALID,95.003,VALID,0,VALID,19.1568,VALID,105,VALID,0,
2013-06-25, 02:32:05,VALID,918.361,VALID,0,VALID,95.1097,VALID,0,VALID,19.1778,VALID,113,VALID,0,
2013-06-25, 02:33:05,VALID,918.363,VALID,0,VALID,95.1402,VALID,0,VALID,19.1583,VALID,104,VALID,0,
2013-06-25, 02:34:05,VALID,918.337,VALID,0,VALID,95.1936,VALID,0,VALID,19.1373,VALID,110,VALID,0,
2013-06-25, 02:35:05,VALID,918.351,VALID,0,VALID,95.186,VALID,0,VALID,19.1583,VALID,110,VALID,0,
2013-06-25, 02:36:05,VALID,918.369,VALID,0,VALID,95.2851,VALID,0,VALID,19.1778,VALID,115,VALID,0,
2013-06-25, 02:37:05,VALID,918.338,VALID,0,VALID,95.2927,VALID,0,VALID,19.1778,VALID,109,VALID,0,
2013-06-25, 02:38:05,VALID,918.365,VALID,0,VALID,95.2622,VALID,0,VALID,19.1763,VALID,108,VALID,0,
2013-06-25, 02:39:05,VALID,918.349,VALID,0,VALID,95.1402,VALID,0,VALID,19.1568,VALID,107,VALID,0,
2013-06-25, 02:40:05,VALID,918.356,VALID,0,VALID,95.2317,VALID,0,VALID,19.1373,VALID,107,VALID,0,
2013-06-25, 02:41:05,VALID,918.333,VALID,0,VALID,95.2927,VALID,0,VALID,19.1373,VALID,109,VALID,0,
2013-06-25, 02:42:05,VALID,918.321,VALID,0,VALID,95.2546,VALID,0,VALID,19.1373,VALID,110,VALID,0,
2013-06-25, 02:43:05,VALID,918.294,VALID,0,VALID,95.2851,VALID,0,VALID,19.1388,VALID,110,VALID,0,
2013-06-25, 02:44:05,VALID,918.293,VALID,0,VALID,95.2927,VALID,0,VALID,19.1388,VALID,110,VALID,0,
2013-06-25, 02:45:05,VALID,918.297,VALID,0,VALID,95.3766,VALID,0,VALID,19.1178,VALID,110,VALID,0,
2013-06-25, 02:46:05,VALID,918.269,VALID,0,VALID,95.3461,VALID,0,VALID,19.1178,VALID,110,VALID,0,
2013-06-25, 02:47:05,VALID,918.25,VALID,0,VALID,95.4375,VALID,0,VALID,19.1583,VALID,110,VALID,0,
2013-06-25, 02:48:05,VALID,918.263,VALID,0,VALID,95.4528,VALID,0,VALID,19.1778,VALID,110,VALID,0,
2013-06-25, 02:49:05,VALID,918.239,VALID,0,VALID,95.4528,VALID,0,VALID,19.1778,VALID,110,VALID,0,
2013-06-25, 02:50:05,VALID,918.241,VALID,0,VALID,95.3766,VALID,0,VALID,19.1373,VALID,110,VALID,0,
2013-06-25, 02:51:05,VALID,918.246,VALID,0,VALID,95.4528,VALID,0,VALID,19.1583,VALID,110,VALID,0,
2013-06-25, 02:52:05,VALID,918.243,VALID,0,VALID,95.4985,VALID,0,VALID,19.1973,VALID,118,VALID,0,
2013-06-25, 02:53:05,VALID,918.245,VALID,0,VALID,95.5367,VALID,0,VALID,19.2363,VALID,129,VALID,0,
2013-06-25, 02:54:05,VALID,918.257,VALID,0,VALID,95.5824,VALID,0,VALID,19.2558,VALID,134,VALID,0,
2013-06-25, 02:55:05,VALID,918.236,VALID,0,VALID,95.5976,VALID,0,VALID,19.2348,VALID,129,VALID,0,
2013-06-25, 02:56:05,VALID,918.284,VALID,0,VALID,95.529,VALID,0,VALID,19.2348,VALID,130,VALID,0,
2013-06-25, 02:57:05,VALID,918.235,VALID,0,VALID,95.529,VALID,0,VALID,19.2558,VALID,127,VALID,0,
2013-06-25, 02:58:05,VALID,918.236,VALID,0,VALID,95.4757,VALID,0,VALID,19.2153,VALID,131,VALID,0,
2013-06-25, 02:59:05,VALID,918.242,VALID,0,VALID,95.4375,VALID,0,VALID,19.1958,VALID,129,VALID,0,
2013-06-25, 03:00:05,VALID,918.247,VALID,0,VALID,95.4528,VALID,0,VALID,19.2168,VALID,130,VALID,0,
2013-06-25, 03:01:05,VALID,918.237,VALID,0,VALID,95.4375,VALID,0,VALID,19.1973,VALID,121,VALID,0,
2013-06-25, 03:02:05,VALID,918.214,VALID,0,VALID,95.4528,VALID,0,VALID,19.1958,VALID,129,VALID,0,
2013-06-25, 03:03:05,VALID,918.187,VALID,0,VALID,95.4833,VALID,0,VALID,19.1958,VALID,137,VALID,0,
2013-06-25, 03:04:05,VALID,918.151,VALID,0,VALID,95.468,VALID,0,VALID,19.1778,VALID,137,VALID,0,
2013-06-25, 03:05:05,VALID,918.157,VALID,0,VALID,95.4147,VALID,0,VALID,19.1778,VALID,140,VALID,0,
2013-06-25, 03:06:05,VALID,918.148,VALID,0,VALID,95.3689,VALID,0,VALID,19.1583,VALID,137,VALID,0,
2013-06-25, 03:07:05,VALID,918.135,VALID,0,VALID,95.4528,VALID,0,VALID,19.1973,VALID,140,VALID,0,
2013-06-25, 03:08:05,VALID,918.121,VALID,0,VALID,95.5138,VALID,0,VALID,19.1778,VALID,139,VALID,0,
2013-06-25, 03:09:05,VALID,918.14,VALID,0,VALID,95.4909,VALID,0,VALID,19.1958,VALID,128,VALID,0,
2013-06-25, 03:10:05,VALID,918.114,VALID,0,VALID,95.4985,VALID,0,VALID,19.1749,VALID,126,VALID,0,
2013-06-25, 03:11:05,VALID,918.092,VALID,0,VALID,95.468,VALID,0,VALID,19.1958,VALID,126,VALID,0,
2013-06-25, 03:12:05,VALID,918.072,VALID,0,VALID,95.4833,VALID,0,VALID,19.2153,VALID,128,VALID,0,
2013-06-25, 03:13:05,VALID,918.007,VALID,0,VALID,95.4757,VALID,0.107441,VALID,19.2139,VALID,128,VALID,0,
2013-06-25, 03:14:05,VALID,918.021,VALID,0,VALID,95.4528,VALID,0,VALID,19.1944,VALID,128,VALID,0,
2013-06-25, 03:15:05,VALID,917.979,VALID,0,VALID,95.3232,VALID,0,VALID,19.2153,VALID,128,VALID,0,
2013-06-25, 03:16:05,VALID,917.939,VALID,0,VALID,95.2775,VALID,0.107441,VALID,19.1944,VALID,128,VALID,0,
2013-06-25, 03:17:05,VALID,917.916,VALID,0,VALID,95.2698,VALID,0,VALID,19.1944,VALID,128,VALID,0,
2013-06-25, 03:18:05,VALID,917.896,VALID,0,VALID,95.2775,VALID,0,VALID,19.2348,VALID,128,VALID,0,
2013-06-25, 03:19:05,VALID,917.879,VALID,0,VALID,95.2698,VALID,0,VALID,19.2738,VALID,128,VALID,0,
2013-06-25, 03:20:05,VALID,917.839,VALID,0,VALID,95.125,VALID,0,VALID,19.2334,VALID,128,VALID,0,
2013-06-25, 03:21:05,VALID,917.85,VALID,0,VALID,94.9878,VALID,0,VALID,19.2348,VALID,128,VALID,0,
2013-06-25, 03:22:05,VALID,917.852,VALID,0,VALID,94.8963,VALID,0,VALID,19.2139,VALID,128,VALID,0,
2013-06-25, 03:23:05,VALID,917.858,VALID,0,VALID,94.7286,VALID,0,VALID,19.1749,VALID,128,VALID,0,
2013-06-25, 03:24:05,VALID,917.813,VALID,0,VALID,94.8887,VALID,0,VALID,19.2139,VALID,128,VALID,0,
2013-06-25, 03:25:05,VALID,917.844,VALID,0,VALID,94.9878,VALID,0.107441,VALID,19.3128,VALID,128,VALID,0,
2013-06-25, 03:26:05,VALID,917.832,VALID,0,VALID,94.9725,VALID,0,VALID,19.3518,VALID,128,VALID,0,
2013-06-25, 03:27:05,VALID,917.849,VALID,0,VALID,94.9039,VALID,0,VALID,19.3908,VALID,128,VALID,0,
2013-06-25, 03:28:05,VALID,917.883,VALID,0,VALID,94.3703,VALID,0,VALID,19.3518,VALID,128,VALID,0,
2013-06-25, 03:29:05,VALID,917.897,VALID,0,VALID,93.7223,VALID,0.107441,VALID,19.1554,VALID,128,VALID,0,
2013-06-25, 03:30:05,VALID,917.874,VALID,0,VALID,93.2877,VALID,0,VALID,19.0189,VALID,128,VALID,0,
2013-06-25, 03:31:05,VALID,917.87,VALID,0,VALID,93.4097,VALID,0,VALID,18.9619,VALID,128,VALID,0,
2013-06-25, 03:32:05,VALID,917.887,VALID,0,VALID,93.8595,VALID,0,VALID,18.9424,VALID,128,VALID,0,
2013-06-25, 03:33:05,VALID,917.845,VALID,0,VALID,94.1187,VALID,0.107441,VALID,18.9229,VALID,128,VALID,0,
2013-06-25, 03:34:05,VALID,917.84,VALID,0,VALID,94.3398,VALID,0,VALID,18.8449,VALID,128,VALID,0,
2013-06-25, 03:35:05,VALID,917.814,VALID,0,VALID,94.7438,VALID,0,VALID,18.8449,VALID,128,VALID,0,
2013-06-25, 03:36:05,VALID,917.826,VALID,0,VALID,95.2241,VALID,0,VALID,18.9034,VALID,121,VALID,0,
2013-06-25, 03:37:05,VALID,917.818,VALID,0,VALID,95.4452,VALID,0,VALID,18.9814,VALID,115,VALID,0,
2013-06-25, 03:38:05,VALID,917.819,VALID,0,VALID,95.5138,VALID,0,VALID,19.0398,VALID,115,VALID,0,
2013-06-25, 03:39:05,VALID,917.85,VALID,0,VALID,95.5214,VALID,0,VALID,19.0998,VALID,115,VALID,0,
2013-06-25, 03:40:05,VALID,917.854,VALID,0,VALID,95.529,VALID,0,VALID,19.1388,VALID,116,VALID,0,
2013-06-25, 03:41:05,VALID,917.871,VALID,0,VALID,95.4299,VALID,0,VALID,19.1193,VALID,116,VALID,0,
2013-06-25, 03:42:05,VALID,917.829,VALID,0,VALID,95.3994,VALID,0,VALID,19.1388,VALID,116,VALID,0,
2013-06-25, 03:43:05,VALID,917.835,VALID,0,VALID,95.3384,VALID,0,VALID,19.1388,VALID,116,VALID,0,
2013-06-25, 03:44:05,VALID,917.823,VALID,0,VALID,95.3461,VALID,0,VALID,19.1178,VALID,116,VALID,0,
2013-06-25, 03:45:05,VALID,917.779,VALID,0,VALID,95.4375,VALID,0,VALID,19.1973,VALID,116,VALID,0,
2013-06-25, 03:46:05,VALID,917.768,VALID,0,VALID,95.3766,VALID,0,VALID,19.2168,VALID,116,VALID,0,
2013-06-25, 03:47:05,VALID,917.779,VALID,0,VALID,95.3766,VALID,0,VALID,19.2363,VALID,119,VALID,0,
2013-06-25, 03:48:05,VALID,917.77,VALID,0,VALID,95.3156,VALID,0,VALID,19.2558,VALID,130,VALID,0,
2013-06-25, 03:49:05,VALID,917.78,VALID,0,VALID,95.2393,VALID,0,VALID,19.2543,VALID,132,VALID,0,
2013-06-25, 03:50:05,VALID,917.751,VALID,0,VALID,95.1097,VALID,0,VALID,19.2753,VALID,131,VALID,0,
2013-06-25, 03:51:05,VALID,917.719,VALID,0,VALID,94.9649,VALID,0,VALID,19.1958,VALID,116,VALID,0,
2013-06-25, 03:52:05,VALID,917.761,VALID,0,VALID,94.9192,VALID,0,VALID,19.2363,VALID,116,VALID,0,
2013-06-25, 03:53:05,VALID,917.723,VALID,0,VALID,94.9573,VALID,0,VALID,19.2168,VALID,116,VALID,0,
2013-06-25, 03:54:05,VALID,917.663,VALID,0,VALID,95.003,VALID,0,VALID,19.2348,VALID,116,VALID,0,
2013-06-25, 03:55:05,VALID,917.686,VALID,0,VALID,94.9649,VALID,0,VALID,19.2753,VALID,116,VALID,0,
2013-06-25, 03:56:05,VALID,917.656,VALID,0,VALID,95.003,VALID,0,VALID,19.2933,VALID,117,VALID,0,
2013-06-25, 03:57:05,VALID,917.673,VALID,0,VALID,94.8963,VALID,0,VALID,19.3143,VALID,119,VALID,0,
2013-06-25, 03:58:05,VALID,917.689,VALID,0,VALID,94.82,VALID,0,VALID,19.2933,VALID,119,VALID,0,